Stations météo

Publicité
Aeroport de Brive-Souillac, France (7439): Température de l'air & dewpoint: 18.01.2019 12:00:00 - 24.01.2019 12:00:00 (CET)Aeroport de Brive-Souillac, France (7439): Vitesse du vent & gusts: 18.01.2019 12:00:00 - 24.01.2019 12:00:00 (CET)Aeroport de Brive-Souillac, France (7439): Direction du vent: 18.01.2019 12:00:00 - 24.01.2019 12:00:00 (CET)Aeroport de Brive-Souillac, France (7439): reduced air pressure: 18.01.2019 12:00:00 - 24.01.2019 12:00:00 (CET)Aeroport de Brive-Souillac, France (7439): visibility: 18.01.2019 12:00:00 - 24.01.2019 12:00:00 (CET)Aeroport de Brive-Souillac, France (7439): Quantités de précipitations: 18.01.2019 12:00:00 - 24.01.2019 12:00:00 (CET)
Date & Time tt [°C] td [°C] ff [km/h] ff [knt] fx [km/h] fx [knt] dd ppp [hPa] vv [km] rr [mm]
24.01.2019 12:00:00 1,3 -2,5 19 10 37 20 NNW 1013,7 31 0,0
24.01.2019 11:00:00 0,9 -2,9 19 10 34 18 NNW 1012,8 20 0,0
24.01.2019 10:00:00 0,0 -3,4 22 12 36 19 NNW 1012,0 40 0,0
24.01.2019 09:00:00 0,3 -3,3 18 10 36 19 NNW 1011,3 36 0,0
24.01.2019 08:00:00 0,3 -3,1 19 10 29 16 NNW 1010,5 26 0,0
24.01.2019 07:00:00 0,4 -3,3 18 10 39 21 NNW 1009,7 32 0,0
24.01.2019 06:00:00 0,7 -3,8 23 12 41 22 N 1009,2 41 0,0
24.01.2019 05:00:00 0,4 -3,5 20 11 37 20 NNW 1008,7 47 0,0
24.01.2019 04:00:00 0,5 -2,9 18 10 34 18 NNW 1008,5 46 0,0
24.01.2019 03:00:00 0,4 -2,5 20 11 41 22 N 1007,8 41 0,0
24.01.2019 02:00:00 0,6 -1,3 18 10 34 19 NW 1007,1 41 0,0
24.01.2019 01:00:00 0,4 -0,7 21 11 36 19 NW 1006,4 45 0,0
24.01.2019 00:00:00 0,2 -0,2 16 9 34 18 NNW 1005,7 1,6 0,2
23.01.2019 23:00:00 0,9 -1,7 19 10 29 15 NW 1004,7 60 0,0
23.01.2019 22:00:00 0,3 -1,5 12 6 23 13 WNW 1004,2 60 0,0
23.01.2019 21:00:00 0,5 -1,1 16 9 49 27 NW 1004,0 60 0,2
23.01.2019 20:00:00 0,3 -0,8 10 6 19 10 WNW 1003,5 59 0,0
23.01.2019 19:00:00 1,1 -0,1 13 7 23 13 WNW 1002,7 60 0,0
23.01.2019 18:00:00 1,2 0,0 15 8 27 14 NW 1002,2 60 0,0
23.01.2019 17:00:00 0,8 -0,1 15 8 54 29 NW 1001,8 60 0,0
23.01.2019 16:00:00 1,0 0,0 32 18 63 34 NNW 1001,6 2,3 0,4
23.01.2019 15:00:00 2,8 0,2 18 10 46 25 NNW 1000,7 15 0,0
23.01.2019 14:00:00 4,4 -0,4 26 14 47 26 NNW 999,8 59 0,0
23.01.2019 13:00:00 3,8 0,3 27 14 55 30 NNW 999,5 59 0,0
23.01.2019 12:00:00 4,0 2,5 23 12 52 28 NNW 999,0 60 0,0
23.01.2019 11:00:00 4,2 3,2 27 15 48 26 NW 998,4 49 0,2
23.01.2019 10:00:00 3,7 3,6 10 6 21 11 W 998,0 28 0,0
23.01.2019 09:00:00 3,3 3,0 4 2 10 5 W 998,1 29 0,0
23.01.2019 08:00:00 3,4 3,3 5 3 11 6 NNW 997,7 8 0,2
23.01.2019 07:00:00 3,5 3,2 4 2 19 10 W 998,0 13 0,0
23.01.2019 06:00:00 3,8 3,4 6 4 19 10 W 998,3 9 0,6
23.01.2019 05:00:00 3,8 3,5 11 6 22 12 W 999,4 30 0,0
23.01.2019 04:00:00 3,6 3,6 7 4 21 11 WSW 999,9 17 0,0
23.01.2019 03:00:00 1,3 1,3 3 2 7 4 SSE 1001,8 1,3 0,0
23.01.2019 02:00:00 0,8 0,8 4 2 8 5 SE 1002,6 0,9 0,4
23.01.2019 01:00:00 0,6 0,5 6 3 9 5 SE 1003,6 1,7 1,0
23.01.2019 00:00:00 0,6 0,5 5 3 11 6 ESE 1004,8 3,3 0,2
22.01.2019 23:00:00 0,5 0,4 7 4 16 9 SSE 1006,0 3,5 0,0
22.01.2019 22:00:00 0,5 0,5 8 4 13 7 SSE 1007,0 2,0 0,0
22.01.2019 21:00:00 0,7 0,6 6 3 10 5 SE 1007,8 2,7 0,0
22.01.2019 20:00:00 0,8 0,5 3 2 18 10 N 1008,2 6 0,0
22.01.2019 19:00:00 1,2 0,9 14 8 21 12 NW 1008,8 4,6 0,0
22.01.2019 18:00:00 1,0 0,9 8 5 15 8 WNW 1008,2 6 0,0
22.01.2019 17:00:00 0,4 0,3 5 3 13 7 SSE 1008,0 3,0 0,0
22.01.2019 16:00:00 0,4 0,1 8 5 16 9 SSE 1008,4 2,5 0,6
22.01.2019 15:00:00 0,2 -0,1 9 5 21 12 SSE 1008,9 1,0 0,6
22.01.2019 14:00:00 0,0 -0,7 13 7 27 15 SE 1009,9 1,9 0,2
22.01.2019 13:00:00 0,2 -1,1 14 8 31 17 SE 1011,4 3,5 0,0
22.01.2019 12:00:00 -0,1 -2,3 16 9 30 16 SE 1012,9 10 0,0
22.01.2019 11:00:00 -0,6 -2,8 15 8 26 14 SE 1014,1 18 0,0
22.01.2019 10:00:00 -1,1 -3,5 13 7 23 13 SE 1015,3 20 0,0
22.01.2019 09:00:00 -1,3 -3,5 12 6 18 10 SE 1016,4 19 0,0
22.01.2019 08:00:00 -1,4 -3,6 8 5 16 9 SSE 1016,9 18 0,0
22.01.2019 07:00:00 -1,9 -3,9 9 5 15 8 SE 1017,5 19 0,0
22.01.2019 06:00:00 -0,8 -3,5 5 3 9 5 S 1018,4 26 0,0
22.01.2019 05:00:00 -0,7 -3,4 3 1 11 6 WSW 1019,0 24 0,0
22.01.2019 04:00:00 -1,0 -2,7 2 1 14 7 S 1019,8 17 0,0
22.01.2019 03:00:00 -1,2 -2,8 5 3 14 7 WSW 1021,0 18 0,0
22.01.2019 02:00:00 -2,6 -2,9 8 4 11 6 NW 1021,7 12 0,0
22.01.2019 01:00:00 -3,7 -4,2 0 0 4 2 N 1022,3 9 0,0
22.01.2019 00:00:00 -3,2 -4,2 2 1 5 3 W 1022,6 8 0,0
21.01.2019 23:00:00 -1,9 -3,0 4 2 11 6 W 1022,7 13 0,0
21.01.2019 22:00:00 -1,0 -2,3 7 4 13 7 W 1022,8 17 0,0
21.01.2019 21:00:00 -0,2 -2,1 9 5 17 9 NNW 1022,6 20 0,0
21.01.2019 20:00:00 0,0 -1,8 6 3 19 11 W 1022,3 20 0,0
21.01.2019 19:00:00 1,0 -1,6 10 5 26 14 NW 1022,1 22 0,0
21.01.2019 18:00:00 3,1 -0,9 18 10 26 14 NNW 1021,5 30 0,0
21.01.2019 17:00:00 4,9 -0,5 19 11 32 17 NNW 1021,1 41 0,0
21.01.2019 16:00:00 5,7 0,5 16 9 30 16 NNW 1020,8 45 0,0
21.01.2019 15:00:00 6,1 1,0 20 11 30 16 NNW 1020,7 46 0,0
21.01.2019 14:00:00 5,7 1,8 21 11 36 20 NW 1021,0 48 0,0
21.01.2019 13:00:00 4,7 1,7 18 10 31 17 NNW 1021,7 43 0,0
21.01.2019 12:00:00 5,3 2,1 16 9 29 16 NNW 1021,8 30 0,0
21.01.2019 11:00:00 4,7 1,5 21 11 32 18 NNW 1021,6 18 0,0
21.01.2019 10:00:00 3,3 2,0 16 9 23 12 NNW 1021,1 18 0,0
21.01.2019 09:00:00 2,7 1,5 13 7 17 9 NNW 1020,8 26 0,0
21.01.2019 08:00:00 2,7 1,7 10 6 14 8 NNW 1020,6 35 0,0
21.01.2019 07:00:00 3,1 1,9 10 5 23 13 NNW 1020,1 22 0,0
21.01.2019 06:00:00 2,5 1,9 14 7 19 10 NW 1019,7 27 0,0
21.01.2019 05:00:00 3,2 2,0 9 5 16 9 NNW 1019,2 38 0,0
21.01.2019 04:00:00 3,4 2,5 9 5 18 10 NNW 1018,9 41 0,0
21.01.2019 03:00:00 3,3 2,4 13 7 19 10 N 1018,8 39 0,0
21.01.2019 02:00:00 3,9 2,9 12 7 21 12 NNW 1018,5 43 0,0
21.01.2019 01:00:00 4,1 3,5 13 7 19 11 NNW 1018,3 26 0,0
21.01.2019 00:00:00 4,0 3,6 8 4 19 10 NNW 1018,0 12 0,0
20.01.2019 23:00:00 4,6 4,3 13 7 17 9 NW 1017,5 17 0,0
20.01.2019 22:00:00 4,3 4,0 5 3 12 7 WNW 1016,9 24 0,0
20.01.2019 21:00:00 4,7 4,3 10 5 14 8 NW 1016,5 16 0,0
20.01.2019 20:00:00 5,1 4,5 5 3 15 8 W 1015,9 14 0,2
20.01.2019 19:00:00 5,2 4,3 0 0 8 4 N 1015,4 25 0,0
20.01.2019 18:00:00 6,0 4,5 7 4 9 5 NNW 1014,8 11 0,0
20.01.2019 17:00:00 6,5 4,0 3 2 10 5 W 1014,3 60 0,0
20.01.2019 16:00:00 6,7 4,2 5 3 14 8 NW 1013,8 60 0,0
20.01.2019 15:00:00 6,6 4,3 2 1 9 5 W 1013,5 59 0,0
20.01.2019 14:00:00 5,9 4,5 5 3 16 9 NW 1013,6 29 0,0
20.01.2019 13:00:00 5,3 4,1 8 4 10 5 ESE 1013,7 8 0,8
20.01.2019 12:00:00 5,5 3,3 4 2 8 5 N 1014,1 26 0,0
20.01.2019 11:00:00 4,5 3,2 6 3 24 13 N 1013,8 25 0,0
20.01.2019 10:00:00 3,7 3,0 3 2 8 4 ESE 1013,0 30 0,0
20.01.2019 09:00:00 2,3 2,2 5 3 6 4 S 1012,7 19 0,0
20.01.2019 08:00:00 1,4 1,1 3 2 6 3 E 1012,2 20 0,0
20.01.2019 07:00:00 0,9 0,6 0 0 5 3 N 1011,8 19 0,0
20.01.2019 06:00:00 0,9 0,3 0 0 5 3 N 1011,3 10 0,0
20.01.2019 05:00:00 2,6 2,2 0 0 8 4 N 1011,1 17 0,0
20.01.2019 04:00:00 3,1 2,5 4 2 5 3 SSE 1011,1 18 0,0
20.01.2019 03:00:00 3,4 2,7 2 1 6 3 NNE 1011,0 18 0,0
20.01.2019 02:00:00 3,9 2,9 4 2 10 6 SSE 1010,6 19 0,0
20.01.2019 01:00:00 4,7 3,2 7 4 13 7 SE 1010,8 28 0,0
20.01.2019 00:00:00 4,6 3,6 8 4 10 6 SE 1010,7 21 0,0
19.01.2019 23:00:00 4,7 3,7 8 4 11 6 SE 1010,5 22 0,0
19.01.2019 22:00:00 4,7 3,7 8 5 15 8 SE 1010,5 23 0,0
19.01.2019 21:00:00 4,9 3,9 9 5 14 8 SE 1010,5 26 0,0
19.01.2019 20:00:00 5,0 4,1 9 5 16 9 SE 1010,7 25 0,0
19.01.2019 19:00:00 5,1 4,2 9 5 13 7 SE 1010,7 27 0,0
19.01.2019 18:00:00 5,6 4,6 7 4 18 10 SE 1010,8 29 0,0
19.01.2019 17:00:00 5,8 4,4 11 6 20 11 SSE 1010,9 18 0,0
19.01.2019 16:00:00 5,9 4,5 9 5 21 11 S 1011,3 28 0,0
19.01.2019 15:00:00 5,8 4,4 9 5 24 13 SSE 1011,8 29 0,0
19.01.2019 14:00:00 5,6 4,4 11 6 23 13 SSE 1012,6 28 0,0
19.01.2019 13:00:00 5,3 4,3 13 7 25 13 SSE 1013,4 23 0,0
19.01.2019 12:00:00 4,6 3,6 12 6 25 13 SSE 1014,3 17 0,0
19.01.2019 11:00:00 4,1 3,5 12 7 25 13 SSE 1014,5 12 0,0
19.01.2019 10:00:00 3,2 2,9 13 7 22 12 SE 1014,5 8 0,0
19.01.2019 09:00:00 2,6 2,3 11 6 18 10 SE 1014,7 7 0,0
19.01.2019 08:00:00 2,5 2,2 11 6 21 11 SE 1014,6 6 0,0
19.01.2019 07:00:00 2,5 2,2 14 7 20 11 ESE 1014,6 4,6 0,0
19.01.2019 06:00:00 2,3 2,0 11 6 15 8 ESE 1014,8 4,3 0,0
19.01.2019 05:00:00 2,4 2,1 7 4 16 9 SSE 1015,2 8 0,0
19.01.2019 04:00:00 2,1 1,8 10 5 15 8 ESE 1015,6 8 0,0
19.01.2019 03:00:00 2,1 2,0 11 6 16 9 ESE 1016,0 7 0,0
19.01.2019 02:00:00 2,1 2,0 10 5 15 8 ESE 1016,1 3,7 0,0
19.01.2019 01:00:00 2,4 2,3 8 4 14 7 ESE 1016,7 3,2 0,0
19.01.2019 00:00:00 1,9 1,8 8 4 10 5 ESE 1017,2 0,8 0,0
18.01.2019 23:00:00 0,5 0,4 4 2 11 6 ESE 1017,3 4,4 0,0
18.01.2019 22:00:00 0,3 0,0 0 0 5 3 N 1017,4 4,9 0,0
18.01.2019 21:00:00 0,5 0,2 4 2 6 3 S 1017,4 1,7 0,0
18.01.2019 20:00:00 1,3 0,9 0 0 3 1 N 1017,7 7 0,0
18.01.2019 19:00:00 2,6 2,0 3 1 5 3 SE 1017,4 7 0,0
18.01.2019 18:00:00 3,5 2,8 3 2 9 5 SE 1017,6 17 0,0
18.01.2019 17:00:00 4,0 3,3 8 4 11 6 ESE 1017,5 19 0,0
18.01.2019 16:00:00 3,9 3,3 8 4 10 5 ESE 1017,6 20 0,0
18.01.2019 15:00:00 3,8 3,7 3 2 13 7 SSW 1017,9 20 0,0
18.01.2019 14:00:00 3,4 3,4 6 3 11 6 SE 1018,3 16 0,0
18.01.2019 13:00:00 2,9 2,9 4 2 13 7 S 1019,0 6 0,0
18.01.2019 12:00:00 2,4 2,4 7 4 11 6 ESE 1019,7 0,9 0,0

tt = Température de l'air
td = dewpoint
ff = Vitesse du vent
fx = gusts
dd = Direction du vent
ppp = reduced air pressure
vv = visibility
rr = Quantités de précipitations

stations d'obs. à proximité